Miscellaneous Local Product
Issued by NWS Hastings, NE

Home | Current Version | Previous Version | Text Only | Print | Product List | Glossary Off
Versions: 1 2 3 4 5 6 7 8 9 10 11 12 13 14 15 16 17 18 19 20 21 22 23 24 25 26 27 28 29 30 31 32 33 34 35 36 37 38 39 40 41 42 43 44 45 46 47 48 49 50

000
AXUS43 KGID 050102
MISGRI

GID CWA HOURLY WEATHER ROUNDUP
NATIONAL WEATHER SERVICE HASTINGS NE
700 PM CST WED MAR 04 2015

NOTE: "FAIR" INDICATES FEW OR NO CLOUDS BELOW 12,000 FEET WITH NO
SIGNIFICANT WEATHER AND/OR OBSTRUCTIONS TO VISIBILITY.

...SOUTH CENTRAL NEBRASKA...

CITY           SKY/WX    TMP DP  RH WIND       PRES   REMARKS
GRAND ISLAND   CLEAR     18   2  49 NE7       30.33R WCI   9
HASTINGS       CLEAR     20   3  48 NE7       30.30R WCI  11
KEARNEY        CLEAR     19   3  49 N8        30.30R WCI   9
ORD            CLEAR     17  -4  39 N8        30.30R WCI   7
YORK           CLEAR     21   3  45 N10       30.32R WCI  10
AURORA         CLEAR     20   4  49 N9        30.31R WCI  10
LEXINGTON      CLEAR     20   6  53 N7        30.27R WCI  12
HOLDREGE       CLEAR     25   7  46 N6        30.27R WCI  18
HEBRON         PTCLDY    24   3  40 NE5       30.34R WCI  18

...NEBRASKA PANHANDLE...

CITY           SKY/WX    TMP DP  RH WIND       PRES   REMARKS
CHADRON        PTCLDY    12   3  67 SW10      30.21R WCI  -1
ALLIANCE       CLEAR     18   0  45 NW13      30.17R WCI   5
SCOTTSBLUFF    CLEAR     20   3  48 NW10      30.18R WCI   9
SIDNEY         CLEAR     20   3  48 N8        30.17R WCI  10

...WESTERN AND NORTH CENTRAL NEBRASKA...

CITY           SKY/WX    TMP DP  RH WIND       PRES   REMARKS
VALENTINE      CLEAR     12   1  61 N5        30.28R WCI   4
AINSWORTH      CLEAR     11   1  64 N8        30.28R WCI  -1
ONEILL         CLEAR     14   0  54 N13       30.32R WCI  -1
BROKEN BOW     CLEAR     16  -5  39 N8        30.26R WCI   5
IMPERIAL         N/A     25   6  44 N8        30.23R WCI  16
NORTH PLATTE   CLEAR     23  -3  32 N9        30.24R WCI  13
MCCOOK         CLEAR     23   2  40 NW8       30.27R WCI  14

...EASTERN NEBRASKA...

CITY           SKY/WX    TMP DP  RH WIND       PRES   REMARKS
NORFOLK        CLEAR     15  -2  46 N15       30.36R WCI   0
SO SIOUX CITY  CLEAR     13  -3  49 N12       30.41R WCI  -1
TEKAMAH        CLEAR     18  -3  39 N14       30.40R WCI   4
COLUMBUS       CLEAR     18  -8  32 N12       30.37R WCI   5
ALBION         CLEAR     18  -5  36 N10G16    30.32R WCI   6
OMAHA EPPLEY   PTCLDY    20  -1  40 N14       30.38R WCI   7
OFFUTT AFB     CLEAR     21  -3  35 N10       30.37R WCI  10
MILLARD        CLEAR     23  -3  31 N6        30.37R WCI  16
LINCOLN        CLEAR     20  -2  38 N10       30.37R WCI   9
NEBRASKA CITY  CLEAR     23  -7  26 N9        30.35R WCI  13
BEATRICE       CLEAR     24   4  41 N8        30.34R WCI  15
FALLS CITY     PTCLDY    25   0  33 N7        30.34R WCI  17

...NORTHERN KANSAS...

CITY           SKY/WX    TMP DP  RH WIND       PRES   REMARKS
GOODLAND       CLEAR     21   7  54 N5        30.24R WCI  15
HILL CITY      CLEAR     23   2  40 N5        30.30R WCI  17
NORTON         CLEAR     21  -2  35 NW9       30.28  WCI  11
PHILLIPSBURG   MOCLDY    28  10  47 CALM      30.31S
SMITH CENTER   CLEAR     23   5  46 N7        30.32R WCI  15
BELOIT         CLEAR     21   3  45 N5        30.33R WCI  15
HAYS           CLEAR     25   1  36 N5        30.32R WCI  19
RUSSELL        CLEAR     25   3  38 N7        30.32R WCI  17
CONCORDIA      MOCLDY    25   6  44 N6        30.33R WCI  18
SALINA         CLOUDY    29   3  33 N12       30.36R WCI  19
TOPEKA         CLOUDY    29   8  41 N3        30.33S



USA.gov is the U.S. government's official web portal to all federal, state and local government web resources and services.